Theta_e
295 295 295 295 295 295 295 295 295 294 294 293 293 293 293 293 292 292 291 291 291 290 290 290 290 290 289 288 288 287 287 286 286 285 285 285 285 285 285 284 284 283 283 283 282 282 282 282 282 283 282 282 282 281 280 280 279 279 279 279 279 278 278 278 277 277 278 278 278 278 277 276 276 276 276 275 276 276 276 276 276 275 275 276 276
296 296 295 295 295 295 295 295 294 294 293 293 293 293 293 292 292 291 291 291 291 290 290 290 289 289 289 288 287 287 287 286 286 285 285 285 285 284 285 284 283 283 283 283 282 282 282 282 282 282 282 282 281 281 280 279 279 279 278 278 278 277 277 276 276 276 276 276 276 276 275 274 275 275 275 274 275 275 275 275 276 275 275 276 276
296 296 295 295 295 294 294 294 294 293 293 293 293 293 292 292 292 291 290 290 290 290 290 289 289 289 288 288 287 286 286 286 285 285 285 285 284 284 284 284 283 283 283 283 283 282 282 282 282 282 282 281 281 280 280 279 279 278 278 277 276 276 276 275 275 274 274 274 275 275 274 274 274 275 275 275 274 275 275 275 275 275 276 276 276
295 295 294 294 295 294 293 293 293 293 292 292 293 292 292 292 291 291 290 290 290 289 289 289 289 289 288 288 287 286 286 286 285 285 285 285 285 285 284 284 283 283 283 283 282 282 282 282 282 282 282 281 281 280 279 279 278 278 277 276 276 275 275 274 274 273 273 273 273 274 274 273 274 274 275 275 275 275 275 275 275 276 276 276 276
294 294 294 294 294 293 293 293 292 292 292 292 292 292 292 291 291 290 290 290 290 289 289 288 288 288 288 288 287 287 286 285 285 284 284 284 285 284 284 284 283 283 283 283 282 282 282 282 282 282 282 281 280 280 279 279 278 277 276 275 275 274 274 273 273 273 272 272 273 273 273 273 274 274 274 275 275 275 275 276 276 276 276 277 277
294 294 294 293 293 293 293 292 292 293 292 292 292 292 291 291 290 290 290 289 289 288 288 288 288 288 288 288 288 287 287 286 285 284 284 284 284 284 284 283 283 283 282 282 282 282 282 282 282 282 282 281 280 280 279 279 277 276 275 274 274 273 273 273 273 273 272 272 272 273 273 273 274 274 274 275 275 275 275 276 276 276 276 277 277
294 294 294 293 293 293 293 293 293 293 293 292 292 291 291 290 290 289 289 289 288 288 288 288 288 288 288 287 287 287 287 286 285 284 284 284 283 283 283 283 283 282 282 282 282 282 282 282 282 282 282 281 281 280 279 278 277 275 274 274 273 273 272 273 273 272 272 272 273 273 273 274 274 274 275 275 275 275 276 276 276 276 276 277 277
294 294 294 293 293 293 293 293 293 293 292 292 291 291 290 290 289 289 289 288 288 288 288 287 287 287 287 287 287 286 286 285 284 284 284 283 283 282 282 282 282 282 281 281 281 281 281 281 281 281 281 281 280 279 278 277 276 275 274 273 273 273 272 273 273 273 273 273 273 273 274 274 274 275 275 276 276 276 276 276 276 277 277 277 277
294 294 293 293 293 293 293 293 293 292 292 291 291 290 290 290 289 289 288 288 288 287 287 287 286 286 286 286 286 285 285 285 284 284 283 283 282 282 282 282 282 281 281 281 281 281 281 281 281 281 280 279 279 278 278 277 275 275 274 274 273 273 273 273 273 273 273 273 274 274 274 274 275 275 276 276 276 276 276 276 277 277 277 277 277
295 294 293 293 294 294 293 293 292 291 291 291 290 290 290 289 288 288 288 287 287 287 286 286 286 286 285 285 285 285 284 284 284 284 284 283 282 281 281 281 281 281 281 280 280 280 280 280 280 280 279 278 278 277 276 275 275 274 274 274 274 274 274 273 274 274 274 274 274 274 275 275 276 276 276 276 276 276 277 277 277 277 277 277 277
296 294 294 295 295 294 293 292 292 291 291 290 290 289 289 288 288 287 287 287 286 286 286 286 286 286 285 285 284 284 284 283 284 284 283 282 282 281 281 281 281 281 281 280 280 280 279 279 279 278 278 277 277 276 275 275 274 274 274 275 275 275 275 274 274 274 274 274 274 275 275 276 276 276 276 277 277 277 277 277 277 277 277 277 277
296 295 295 295 294 294 293 292 291 291 290 290 289 289 288 288 287 287 286 286 286 285 285 285 285 285 285 284 284 283 283 283 283 283 282 282 282 281 281 281 280 280 280 280 280 280 279 278 278 277 277 277 276 275 275 275 275 276 276 276 276 276 276 276 276 275 275 276 276 276 276 276 277 277 277 277 276 277 277 277 277 277 277 277 277
295 295 295 294 293 293 293 292 291 291 290 289 289 288 287 287 286 286 286 285 285 285 285 285 285 284 284 283 283 283 283 283 283 283 282 282 282 281 281 280 280 280 280 280 279 279 278 278 277 276 276 276 275 274 274 275 276 276 277 277 277 276 277 277 277 277 277 277 277 277 277 277 277 277 276 276 277 277 277 277 277 277 277 278 278
294 294 294 293 293 292 292 291 291 290 289 289 288 287 287 286 286 285 285 284 284 284 284 284 284 284 283 283 283 283 282 282 282 282 282 282 281 280 280 280 280 280 280 280 279 279 278 277 277 276 276 275 275 274 274 274 275 276 276 276 276 275 276 276 276 277 277 277 277 276 276 276 276 276 276 277 277 277 277 277 277 277 278 278 277
292 292 292 292 292 292 291 291 290 289 288 288 287 287 286 285 285 285 284 284 284 284 283 283 283 283 283 283 282 282 282 282 282 282 283 282 281 280 280 279 279 279 279 279 278 278 277 277 277 276 276 275 275 274 274 274 274 274 274 274 274 275 275 275 276 276 276 276 276 276 276 276 276 277 277 277 277 277 278 278 277 277 276 276 275
291 291 291 291 291 291 290 290 289 288 287 287 286 286 285 285 284 284 284 283 283 283 283 283 282 282 282 282 282 281 281 281 282 283 283 283 281 280 279 279 278 278 278 278 277 277 277 276 276 276 276 275 275 275 274 274 274 274 274 274 274 275 275 276 276 276 276 276 276 277 277 277 277 277 277 277 277 277 277 276 275 274 273 273 273
291 290 290 290 290 290 289 289 288 287 286 286 285 285 284 284 284 283 283 282 282 282 282 282 282 282 281 281 281 280 280 281 282 283 283 283 281 279 278 278 277 277 277 277 276 276 276 276 276 276 276 275 275 275 275 275 274 274 275 275 275 276 276 275 275 276 276 277 277 277 277 276 276 276 277 277 276 276 275 274 273 272 272 272 272
290 289 289 289 289 289 289 288 287 287 286 285 284 284 284 283 283 283 282 282 282 282 281 281 281 281 281 281 281 280 280 281 282 283 284 283 281 279 278 277 277 276 276 276 276 276 276 276 276 276 276 275 275 275 276 276 276 276 276 276 276 276 275 275 276 276 276 275 275 275 275 275 275 275 275 275 274 273 273 272 271 271 271 271 271
289 289 289 289 288 288 288 287 287 286 285 284 284 284 283 283 282 282 282 282 281 281 281 280 280 280 280 280 280 280 280 280 282 284 284 283 281 279 278 276 276 275 275 276 275 275 275 275 276 276 275 274 275 275 276 277 277 276 276 276 276 275 275 276 276 275 275 274 274 274 274 274 274 274 273 272 272 271 271 271 270 270 271 271 271
289 289 289 289 288 288 287 287 286 286 285 284 283 283 283 282 282 281 281 281 281 280 280 280 279 279 279 279 279 279 280 280 282 284 284 283 281 279 277 276 276 276 275 276 275 275 275 275 276 276 275 275 275 276 277 277 277 276 276 276 275 276 276 275 275 274 274 274 274 273 273 273 272 271 271 270 270 270 270 270 270 270 270 270 271
289 289 289 288 288 287 287 286 285 285 284 283 283 282 282 282 281 281 280 280 280 279 279 279 278 278 278 278 278 278 279 279 281 283 284 283 281 279 278 276 276 276 276 275 275 275 275 275 275 276 276 276 276 277 277 277 277 276 276 276 276 276 275 275 274 274 274 274 273 273 272 271 270 270 270 269 269 269 269 269 269 269 270 270 270
289 289 288 288 287 287 286 285 284 284 283 283 282 281 281 281 280 280 279 279 279 278 277 277 277 276 276 276 277 277 277 278 280 283 284 284 282 281 279 278 277 276 276 276 275 275 275 275 274 275 277 277 277 277 277 276 277 276 276 276 276 275 275 275 274 274 273 273 272 271 270 269 269 269 269 269 269 269 269 269 269 269 269 270 270
289 288 288 288 287 286 286 285 284 283 283 282 282 281 280 279 279 279 279 278 277 277 276 276 276 275 275 275 275 276 276 277 279 282 284 284 283 281 280 279 277 276 276 276 275 275 275 275 274 275 277 277 276 276 276 276 277 276 276 275 275 274 274 274 273 273 272 271 270 269 269 268 268 268 268 268 268 268 268 268 268 268 268 269 269
288 288 288 287 287 286 285 284 283 283 282 282 281 280 279 278 278 278 277 277 276 275 275 275 274 274 274 274 274 275 275 276 278 281 283 283 283 282 280 279 278 277 276 276 275 275 274 274 275 275 276 276 275 276 276 276 276 275 274 274 274 273 273 272 272 271 270 269 268 268 268 268 268 268 268 268 268 268 268 268 268 268 268 268 268
287 287 287 287 286 285 284 283 283 283 282 281 280 279 278 277 277 276 276 276 276 275 274 274 274 274 274 273 273 274 274 275 277 280 282 283 283 282 280 279 278 277 276 275 275 274 274 275 275 275 275 275 275 276 276 275 274 273 273 272 272 272 271 271 270 269 268 267 267 267 267 267 267 267 267 267 267 267 267 268 268 268 268 268 268
284 285 285 286 285 284 283 282 282 281 281 281 280 279 278 277 276 276 275 275 275 275 274 274 274 274 274 273 273 273 273 274 276 278 280 281 282 282 281 279 279 277 275 275 275 275 275 275 275 275 275 275 275 275 274 273 272 271 271 271 271 271 270 270 269 268 267 267 267 267 267 267 267 267 267 267 267 267 267 267 267 268 268 268 268
281 283 284 284 284 283 282 281 281 280 279 279 279 278 277 277 276 275 275 275 275 275 275 274 274 274 274 273 272 272 273 273 274 276 279 280 281 282 281 279 279 277 275 275 275 275 275 275 274 274 274 274 273 273 272 271 271 271 271 271 270 270 270 269 268 267 267 267 267 267 267 267 266 266 267 266 267 267 267 267 267 267 268 268 268
278 280 282 283 283 282 281 281 280 279 278 278 278 277 276 276 276 275 275 275 275 275 275 274 274 275 274 273 273 272 272 273 273 275 277 279 280 281 280 279 278 277 275 275 275 275 275 274 273 273 273 272 272 271 271 270 270 270 270 270 270 270 269 268 267 267 267 267 267 266 266 266 266 266 266 266 266 267 267 267 267 268 268 268 269
275 277 279 281 282 281 280 280 279 278 277 277 277 277 277 277 276 276 276 276 276 276 276 275 275 275 275 274 273 273 273 273 273 274 276 278 279 280 279 278 278 277 275 275 275 274 273 273 272 272 271 271 270 270 269 270 270 269 270 270 270 269 269 268 267 267 267 267 266 266 266 266 266 266 266 266 266 267 267 267 267 268 268 269 269
274 275 278 280 281 280 279 278 278 277 277 276 276 276 277 277 277 277 276 276 276 276 276 276 276 276 275 275 275 274 274 274 274 274 276 278 279 279 279 278 277 276 275 274 274 273 272 271 271 270 270 269 269 269 269 269 269 269 270 270 269 269 268 268 267 267 267 266 266 266 266 266 266 266 266 266 266 267 267 267 268 268 268 269 270
273 274 276 278 280 280 279 278 277 277 276 276 276 276 275 275 276 276 276 276 276 276 277 277 276 276 276 275 275 275 274 274 274 275 276 278 279 279 279 278 277 275 275 274 273 272 271 270 269 269 269 269 269 269 269 269 269 270 269 269 269 268 268 268 267 267 266 266 266 266 266 266 266 266 266 266 266 267 267 267 268 268 269 269 270
273 274 276 277 279 279 279 278 277 276 276 275 275 275 275 275 275 276 276 276 276 276 277 277 277 277 276 276 275 275 275 275 275 276 277 278 279 279 278 277 276 275 275 274 272 271 270 269 268 268 268 268 269 269 269 269 270 269 269 269 269 268 268 267 267 266 266 266 266 266 266 266 266 266 266 266 266 267 267 267 268 268 269 269 269
271 273 275 276 278 279 279 278 277 276 276 275 275 275 275 275 275 275 276 277 277 277 277 278 278 277 277 276 276 275 275 276 276 277 278 278 279 279 278 277 277 276 274 273 271 269 269 268 268 267 268 268 269 269 269 269 269 269 269 269 269 268 268 267 266 266 266 266 266 266 266 266 266 266 266 266 266 267 267 267 268 268 269 269 269
270 271 273 275 277 278 279 278 277 277 276 275 275 275 275 275 275 275 275 276 276 277 277 277 278 278 277 277 276 276 276 276 277 277 278 279 279 278 278 277 277 276 274 272 270 269 268 268 268 268 268 269 269 269 269 269 269 269 269 269 268 268 268 267 266 266 266 266 266 266 266 266 266 265 265 266 266 267 267 268 268 269 269 268 268
270 271 273 275 276 278 279 278 278 277 276 275 275 275 275 275 275 275 275 275 275 276 276 277 278 278 278 278 277 276 276 277 277 278 278 279 279 278 277 277 277 275 273 271 270 269 268 268 268 268 268 269 269 269 269 269 269 269 268 268 268 267 266 266 265 265 265 265 265 265 265 265 265 265 265 265 266 267 267 268 268 268 268 268 268
269 270 271 273 274 277 279 279 278 277 276 276 275 275 275 274 274 274 275 275 275 276 276 276 277 278 278 278 277 277 277 277 278 278 279 279 279 278 277 276 275 272 270 270 270 269 268 268 268 268 269 269 269 269 269 268 268 268 268 267 267 266 265 265 265 265 265 265 265 265 265 265 265 265 265 265 266 266 267 268 268 268 268 268 268
268 269 271 272 274 276 278 279 278 277 276 276 275 274 274 274 274 274 275 275 275 276 276 276 277 278 278 278 277 277 278 278 279 279 278 279 279 278 276 275 273 270 269 269 269 269 268 268 268 269 269 269 269 268 268 268 268 268 267 266 266 265 265 264 264 264 265 265 265 265 265 265 265 265 265 265 266 267 267 268 268 268 268 268 268
269 270 271 272 274 276 277 278 277 277 276 275 274 274 274 274 274 274 274 275 275 276 276 276 277 277 278 277 277 278 278 279 278 279 279 279 278 276 274 272 271 269 269 268 269 268 268 268 268 269 268 268 268 268 268 268 267 267 266 266 265 265 264 264 264 265 265 265 265 265 265 264 264 264 265 265 266 267 267 268 268 268 268 267 267
268 269 270 271 272 274 276 277 277 275 275 274 274 273 273 273 274 274 274 275 275 276 276 276 277 277 277 277 277 278 279 279 279 279 278 277 275 273 271 270 270 269 268 268 268 268 268 268 268 268 268 268 268 267 267 267 267 266 266 266 265 265 265 264 265 265 265 265 265 265 264 264 264 264 265 265 266 267 268 268 268 268 267 267 267
267 268 269 271 272 273 275 276 275 274 274 273 273 273 273 273 274 274 274 275 276 276 276 276 276 277 277 277 278 278 279 279 278 276 274 272 271 271 270 269 268 268 267 267 267 268 268 268 268 268 268 267 267 267 267 267 266 266 266 266 265 265 265 265 265 265 265 265 265 265 264 264 264 264 265 266 267 268 268 268 268 268 267 267 267
266 267 268 270 272 274 275 275 274 273 273 273 273 273 273 273 273 274 274 275 276 276 276 276 276 277 277 277 278 279 278 275 273 271 271 271 270 269 269 268 268 268 268 268 268 268 268 268 267 267 267 267 267 267 267 266 266 266 265 265 265 265 265 265 265 265 265 265 265 264 264 264 264 264 265 266 267 268 268 268 268 267 267 267 267
266 267 268 269 270 272 274 274 273 273 273 272 272 272 273 273 273 274 274 275 275 275 276 276 276 276 277 277 278 277 275 272 271 270 270 270 268 267 267 268 268 268 268 268 268 268 267 267 267 267 267 267 267 267 266 266 266 265 265 265 265 264 264 264 264 265 265 265 264 264 264 264 264 265 266 266 267 268 268 268 267 267 267 267 267
266 267 268 269 270 272 273 273 273 272 272 272 272 272 272 273 273 274 274 275 275 275 275 274 274 275 276 276 276 274 272 270 269 268 267 267 266 267 267 268 268 268 268 268 268 267 267 267 267 267 267 267 267 267 266 266 265 265 265 265 265 264 264 264 264 265 265 264 264 264 264 264 264 265 266 266 267 268 268 268 267 267 267 267 267
266 267 269 270 271 272 273 272 272 272 272 272 272 272 272 273 273 274 274 274 274 273 272 272 273 274 274 273 272 270 269 267 266 266 265 266 266 267 267 268 268 268 268 267 267 267 267 267 267 267 266 266 266 266 265 265 265 265 265 265 265 264 264 264 265 265 265 264 264 264 264 264 265 265 266 266 268 268 268 267 267 267 267 267 266
267 268 269 270 271 271 272 271 271 271 271 271 271 271 272 272 272 273 273 272 272 271 271 272 272 271 269 268 268 267 266 265 265 265 265 266 267 267 268 268 267 267 267 266 266 266 267 267 267 266 266 266 265 265 265 264 264 264 264 264 264 265 265 264 265 265 264 264 264 264 264 264 265 265 266 267 268 268 267 267 267 267 267 266 266
267 268 269 270 270 270 270 270 270 270 270 270 271 271 271 271 272 271 271 271 271 271 271 270 269 268 266 265 265 264 264 264 264 265 265 266 267 267 267 267 266 266 266 266 266 266 266 266 266 266 266 265 265 265 264 264 264 264 264 264 264 264 264 264 264 264 265 265 265 264 264 264 265 266 267 268 268 267 267 267 267 267 266 266 266
267 268 268 269 269 269 269 269 269 269 270 270 270 270 270 270 270 269 269 269 269 269 268 267 266 265 264 263 263 263 264 264 264 264 265 266 266 266 266 266 266 266 266 266 266 266 266 266 266 265 265 265 265 264 264 264 264 264 264 264 264 264 264 264 264 264 265 265 265 265 265 265 266 267 267 268 267 267 267 267 267 267 266 266 266
266 267 267 267 267 267 267 268 268 268 268 268 268 268 268 267 267 267 267 267 267 266 265 265 264 263 263 262 262 262 263 263 264 264 265 265 265 265 265 265 265 265 265 265 265 265 265 265 265 265 265 265 265 264 264 264 264 264 264 263 263 264 264 264 264 264 265 265 265 265 265 266 267 268 268 267 267 267 267 267 267 266 266 265 265
265 265 265 266 266 266 266 266 267 266 266 266 266 266 266 265 265 265 265 265 264 264 264 263 262 262 262 262 262 263 263 263 264 264 264 264 264 264 264 264 264 264 265 265 265 265 265 265 265 265 265 265 265 265 264 264 264 264 264 263 263 263 264 264 264 264 265 265 265 266 266 267 268 268 267 267 267 267 267 267 266 266 266 265 265
264 264 264 264 264 264 265 265 265 265 265 265 264 264 264 264 264 264 264 263 263 263 262 262 262 262 262 262 262 263 263 264 264 264 264 264 264 263 263 264 264 264 264 264 264 264 264 265 265 265 265 265 265 265 264 264 264 264 264 264 263 263 264 264 264 264 264 265 265 266 267 268 268 267 267 266 267 267 267 267 266 266 265 265 265
263 263 263 263 263 263 264 264 263 263 264 264 263 263 263 263 263 263 263 263 262 262 262 262 262 262 262 262 263 263 263 264 264 264 263 263 263 263 263 263 264 264 264 264 264 264 264 264 264 265 265 264 264 264 264 264 264 264 264 264 264 264 264 264 264 264 265 265 266 267 268 268 268 267 266 266 267 267 267 266 266 265 265 265 264
Wind_Speed
38 41 42 43 42 42 43 45 45 43 41 40 41 41 41 41 41 41 40 40 40 40 41 42 43 43 43 44 45 45 45 44 42 41 40 38 37 36 34 33 31 29 27 26 25 24 24 23 22 20 19 17 16 15 14 13 13 13 13 13 14 14 14 13 10 12 18 20 19 16 14 18 23 24 25 29 30 30 31 31 31 31 32 34 37
41 44 43 42 44 45 45 45 44 43 42 42 42 42 42 42 41 40 40 40 41 41 42 42 42 43 43 43 44 45 45 45 44 43 42 41 39 37 36 34 32 30 29 28 27 26 25 24 22 21 19 17 16 15 15 14 14 14 14 14 14 15 14 15 13 12 16 19 19 19 16 15 21 25 25 26 28 29 30 32 32 32 33 35 36
43 43 41 42 44 44 42 41 41 41 43 43 44 44 44 43 42 41 41 40 40 41 42 42 42 42 42 43 43 44 44 45 45 45 44 43 41 40 38 36 34 33 32 31 29 28 27 25 23 21 19 18 17 16 15 15 15 15 15 14 14 15 15 16 16 14 17 21 21 20 18 17 22 27 28 28 27 28 31 33 33 33 34 36 35
40 39 40 43 43 41 40 39 38 39 41 43 45 46 45 43 43 42 41 41 41 41 41 42 42 42 43 43 43 43 44 45 45 45 45 44 43 41 39 37 36 34 33 32 30 29 28 26 24 22 21 19 18 17 16 16 16 15 15 14 14 14 14 14 16 16 18 22 24 22 22 21 22 24 29 31 30 31 33 34 35 34 34 34 33
38 38 40 40 39 39 40 39 39 41 43 45 46 46 45 43 43 42 42 42 42 42 41 42 42 43 44 45 44 44 44 45 45 45 44 44 43 42 40 38 37 35 33 31 30 29 28 27 25 23 22 21 20 19 18 17 16 16 15 14 12 11 11 11 13 15 17 23 28 28 25 23 23 23 25 29 33 36 37 35 34 34 34 35 34
39 38 38 38 38 39 40 40 42 44 47 48 47 46 44 43 42 42 43 43 43 42 43 43 44 45 46 46 46 46 46 46 47 46 45 44 42 41 40 38 36 35 33 31 30 29 28 27 25 24 23 22 21 20 18 17 17 16 14 13 11 9 9 10 11 14 18 22 28 30 27 24 24 23 23 27 33 36 38 37 34 31 33 37 36
36 38 39 40 40 41 42 43 45 48 49 49 46 44 43 42 42 43 43 43 43 44 44 45 46 46 47 46 46 47 47 47 47 47 46 45 43 42 40 38 36 35 33 31 29 28 28 27 26 25 23 22 20 19 18 17 16 16 14 12 10 9 8 9 11 14 18 22 24 26 26 24 24 25 27 30 30 29 31 35 35 32 33 35 36
32 36 37 38 39 41 43 45 47 48 47 44 42 41 42 42 43 43 43 43 44 45 45 45 44 44 45 45 45 45 46 46 47 47 46 45 43 42 40 39 37 35 33 31 30 29 28 27 26 24 22 20 19 18 17 17 16 16 14 11 9 8 9 10 12 14 16 18 20 22 23 24 24 25 27 27 26 26 26 29 33 34 35 34 33
31 34 33 35 40 42 43 44 45 44 41 40 41 42 42 43 43 43 43 44 44 43 43 43 42 42 42 42 43 44 45 46 47 47 47 45 43 42 40 39 38 36 34 32 31 30 29 28 26 24 21 19 18 17 16 17 17 16 14 11 10 10 11 12 13 14 15 16 16 17 19 19 19 22 24 22 23 26 27 27 29 31 35 38 35
32 32 33 38 42 41 39 39 38 37 38 40 41 42 42 41 42 42 43 42 42 41 41 42 42 42 42 42 42 43 44 45 46 48 48 47 45 42 40 39 38 37 36 34 32 31 29 28 26 23 21 18 17 17 16 16 16 14 12 10 10 11 13 15 15 15 16 16 15 14 15 16 17 19 20 21 23 25 26 26 30 34 35 35 36
32 32 36 41 42 38 35 34 34 35 38 39 39 40 40 40 41 41 41 40 40 40 41 42 42 43 43 43 43 43 43 44 45 47 47 47 45 43 41 40 38 37 36 35 34 32 30 28 25 22 20 19 18 17 16 16 16 15 13 12 12 13 14 16 16 17 17 17 17 16 14 16 17 18 19 22 25 27 28 29 31 34 31 25 27
33 34 38 40 38 35 33 33 33 35 36 37 37 38 38 39 39 40 40 40 40 40 42 43 43 42 42 42 42 43 43 44 45 46 46 45 45 43 42 40 39 37 37 36 34 33 30 28 25 23 21 21 19 18 18 18 17 17 17 17 17 16 16 16 17 16 16 16 18 17 16 18 20 21 22 23 26 29 30 30 29 30 31 28 27
32 34 36 35 33 33 32 31 33 34 34 34 34 34 35 37 38 39 39 39 39 40 41 42 42 41 41 42 42 42 42 43 44 45 45 45 44 43 41 40 39 38 37 36 34 32 31 28 26 24 23 21 19 19 20 20 19 17 17 17 17 17 17 18 18 17 17 18 19 18 18 20 23 24 24 24 28 30 29 29 29 30 33 33 33
28 30 31 30 29 29 28 29 31 32 31 31 32 33 34 35 36 37 37 37 38 40 40 40 41 41 42 42 41 41 41 42 43 43 42 41 41 42 40 38 38 37 36 36 34 32 31 29 27 26 23 21 21 20 20 21 20 19 17 17 17 16 16 17 17 17 19 19 20 21 23 25 27 29 30 27 27 29 29 30 32 31 32 35 38
27 26 27 27 25 24 25 26 27 26 27 28 30 32 33 33 34 34 35 37 39 39 39 39 39 40 40 40 40 39 40 42 42 41 38 35 36 39 39 37 36 36 35 34 33 32 30 29 27 25 23 22 21 20 19 19 20 18 16 16 17 17 17 18 16 17 19 19 21 25 27 29 29 29 30 28 26 28 31 32 33 33 35 39 42
29 26 23 23 22 21 22 22 23 23 24 27 28 30 31 32 32 33 33 34 35 35 36 37 38 39 39 39 39 37 38 40 40 39 37 34 33 36 38 37 36 35 33 33 32 30 29 28 26 24 23 21 19 19 19 19 18 17 17 17 18 18 18 17 15 16 19 21 22 25 26 26 27 28 29 29 28 29 31 34 36 36 35 33 33
30 28 24 22 20 19 19 20 21 21 23 26 27 28 29 30 31 32 32 32 33 34 35 36 38 39 39 40 39 37 37 38 38 36 36 35 34 37 38 37 35 34 33 32 31 29 28 27 26 24 22 21 19 19 20 19 18 18 18 19 18 17 17 16 16 17 18 19 20 22 24 26 27 28 27 26 26 27 30 33 35 33 27 21 20
32 30 27 23 20 18 18 18 20 21 23 25 25 26 27 29 30 32 32 32 32 33 34 34 35 38 40 41 41 39 39 40 39 37 36 36 36 39 39 38 35 33 32 30 29 28 27 26 25 23 22 21 19 19 20 20 19 19 18 17 16 16 17 16 16 16 16 19 21 23 25 25 24 25 26 27 28 27 28 31 32 30 25 20 20
32 30 28 24 20 18 16 17 19 20 22 24 24 25 26 27 28 29 30 31 30 31 32 32 32 35 37 39 40 40 41 42 41 40 38 37 38 40 39 37 35 32 31 30 28 27 26 24 22 21 21 21 20 19 19 20 20 19 17 15 15 16 14 13 14 17 20 23 22 21 21 21 24 27 31 33 32 28 27 27 28 28 27 26 25
32 29 26 23 20 17 15 16 18 19 20 21 22 23 24 25 26 28 28 28 28 29 30 31 31 32 33 36 37 39 40 41 40 39 38 38 39 41 40 37 35 34 32 31 29 27 26 25 22 22 22 21 19 19 19 19 18 17 16 15 15 15 13 13 16 18 19 20 19 19 23 27 30 32 32 32 29 26 25 25 26 28 29 31 32
32 28 25 22 19 16 14 15 16 17 18 19 20 22 23 24 26 27 27 27 27 27 28 28 29 29 30 33 34 35 38 40 39 37 38 38 39 40 40 37 36 36 33 31 30 29 29 29 27 24 23 22 20 19 18 17 16 16 15 15 14 12 11 13 16 15 17 20 23 26 30 31 31 30 28 27 26 26 26 26 26 28 28 30 32
32 29 26 22 18 15 13 14 15 16 17 18 19 21 22 24 26 27 27 26 26 25 25 26 26 25 27 29 30 31 34 38 39 38 39 40 39 39 41 38 36 35 33 30 30 30 30 31 29 25 23 22 20 18 17 16 15 14 14 12 10 9 10 12 15 16 19 23 26 28 29 28 27 26 26 26 27 26 28 28 27 28 30 32 35
33 29 26 22 19 15 13 13 15 16 17 18 20 21 21 23 25 27 27 26 25 24 24 24 24 23 23 25 27 29 31 35 38 38 38 39 37 36 39 39 35 34 34 32 30 30 29 29 28 24 21 20 18 17 16 15 13 12 11 9 7 8 10 13 16 18 20 23 24 25 26 24 23 24 25 26 27 28 29 31 32 34 35 38 40
32 29 27 24 20 17 14 14 15 17 18 19 21 21 22 23 24 25 26 26 24 23 23 23 23 21 22 23 26 29 31 32 34 35 35 37 36 32 33 35 33 32 33 31 30 29 27 26 25 22 19 17 16 15 15 13 12 11 9 6 6 9 11 14 16 17 19 20 20 22 23 22 22 24 26 27 28 30 33 33 34 36 37 40 42
31 30 28 25 22 19 17 16 17 18 19 21 23 24 24 25 24 24 25 25 24 22 22 23 23 21 21 23 26 29 31 31 31 31 31 33 35 31 28 30 31 30 31 29 26 26 25 23 21 19 17 16 15 15 16 14 12 9 7 6 8 11 12 13 14 14 16 17 19 21 23 23 23 25 27 29 29 31 33 34 35 36 37 40 42
30 30 29 27 24 20 18 18 18 19 21 23 25 26 27 28 26 25 25 25 24 23 22 23 23 21 22 25 28 31 32 32 33 32 29 30 33 31 28 27 27 27 28 27 24 23 22 20 19 19 18 18 18 17 17 16 12 9 8 8 10 11 11 11 10 11 14 17 18 20 22 24 25 26 27 28 30 31 33 34 36 37 37 37 40
31 29 29 28 26 22 21 20 20 20 22 24 25 26 27 28 28 27 27 26 24 23 23 22 23 22 21 24 30 33 33 33 34 35 33 32 32 31 29 28 27 26 26 25 23 22 21 19 20 21 20 18 18 17 15 14 12 10 9 9 9 9 8 8 9 11 14 17 18 20 23 24 25 27 27 28 30 32 32 32 34 36 37 36 36
31 31 31 29 26 25 24 23 21 22 23 26 27 27 28 30 29 30 33 33 29 27 26 26 27 27 25 26 28 28 29 32 36 39 40 37 35 33 31 30 29 28 27 27 26 25 23 22 22 21 20 17 16 15 13 12 11 10 9 9 8 7 7 7 9 11 13 15 18 20 22 23 25 26 27 28 30 31 31 31 33 35 37 35 30
33 34 32 29 27 26 25 24 24 24 24 26 28 30 32 34 34 33 35 36 35 33 31 31 32 31 29 30 31 28 28 33 39 42 42 39 37 35 34 34 33 32 31 32 31 29 26 24 22 21 19 17 16 14 13 12 11 10 10 9 7 7 6 7 9 11 12 14 17 20 22 24 25 27 27 28 30 31 31 31 32 35 36 33 29
31 31 30 28 26 25 24 25 25 25 25 25 26 28 30 33 34 33 32 34 35 33 30 30 32 32 31 32 35 34 33 36 38 39 38 37 37 37 36 36 36 35 34 34 33 30 26 23 22 21 19 18 17 16 15 14 13 12 10 9 7 6 6 8 9 11 12 15 18 20 22 24 25 27 27 28 31 33 32 32 33 35 34 30 29
27 27 26 25 25 24 24 25 25 24 25 25 24 24 23 26 30 31 30 30 31 30 28 26 27 30 32 31 32 31 29 29 33 35 36 36 37 36 34 34 35 35 36 36 33 29 26 23 22 21 21 19 19 18 17 16 15 13 11 8 7 6 7 9 9 11 14 16 18 21 23 24 25 26 27 29 32 35 35 35 34 33 32 30 29
27 27 27 25 26 26 25 25 24 23 23 23 23 22 20 19 21 25 27 27 27 28 28 25 23 26 29 30 31 30 26 27 33 36 36 36 37 36 34 34 35 34 34 34 32 28 26 25 23 23 23 22 21 20 19 18 16 14 11 9 7 7 8 8 9 12 15 17 19 21 23 24 25 26 28 30 32 34 35 35 33 32 31 32 31
29 30 30 27 26 25 24 24 24 23 22 22 22 22 21 17 15 17 22 25 24 26 28 27 25 25 26 29 32 32 30 31 34 37 37 37 37 36 35 36 35 33 33 33 31 28 27 27 25 26 26 24 23 22 20 18 16 13 10 9 7 7 8 8 10 13 16 17 19 21 23 25 26 28 29 30 31 33 35 34 33 32 31 30 31
33 33 33 30 27 25 24 24 23 23 23 23 23 23 23 22 18 15 16 17 18 20 25 28 28 27 27 29 31 32 32 33 36 38 38 38 38 38 37 35 34 33 33 34 32 30 29 27 27 27 27 25 24 24 21 19 16 13 10 9 7 8 9 10 12 15 17 18 20 21 23 25 27 28 29 30 31 33 33 32 32 31 29 29 31
32 32 33 32 30 28 27 25 24 24 24 23 23 23 23 22 21 18 17 15 14 16 20 25 28 29 29 30 32 33 34 36 37 39 39 40 40 40 37 34 32 32 32 34 33 32 31 30 29 29 29 27 26 24 21 18 15 12 10 9 9 9 11 12 14 16 17 18 20 22 23 26 27 28 30 31 31 31 31 32 33 32 31 31 32
34 34 34 34 32 30 28 25 23 24 24 23 24 24 23 22 21 20 19 19 17 16 18 21 25 28 29 30 32 34 35 37 38 39 40 42 43 42 37 32 31 31 32 33 33 32 32 32 31 31 30 28 26 23 20 17 14 12 10 10 10 11 12 14 16 16 17 19 20 23 25 26 28 30 30 31 31 31 32 34 35 35 35 34 33
34 32 32 33 32 30 29 26 24 25 25 24 24 23 22 22 21 20 19 18 18 17 17 19 22 24 27 30 32 33 35 37 39 39 40 41 42 41 37 35 34 33 32 33 33 33 33 32 32 32 30 28 25 22 19 16 13 12 11 11 11 12 13 15 16 16 17 19 21 24 26 27 29 30 30 31 32 33 33 34 35 35 36 35 33
32 31 31 31 29 28 27 25 24 24 24 23 22 21 20 20 20 19 19 18 18 18 17 19 21 22 23 27 31 33 35 36 37 38 40 41 41 38 36 36 35 34 33 34 34 34 34 33 32 32 29 26 24 20 17 15 13 11 11 10 11 12 13 14 15 16 17 19 21 24 26 28 29 30 30 31 33 33 34 35 33 33 35 36 34
32 32 33 32 31 29 27 23 21 21 21 20 20 20 19 18 18 18 18 18 18 18 17 18 20 22 23 27 31 33 34 34 34 35 36 36 36 37 36 35 34 33 34 35 35 35 34 34 32 30 28 25 22 19 17 14 12 11 10 9 10 11 12 13 15 16 16 19 22 24 27 29 30 31 30 31 32 33 34 34 33 34 35 36 36
28 28 29 29 28 28 26 22 20 19 19 19 19 19 18 18 18 18 18 17 17 18 18 19 20 22 25 29 33 35 33 30 28 28 29 30 33 36 37 36 35 34 35 36 36 35 35 34 32 29 27 24 21 18 15 13 11 10 9 9 10 11 12 14 15 16 17 19 22 25 27 29 31 31 30 30 31 32 32 32 35 38 38 36 37
28 28 28 27 25 25 23 20 20 19 19 19 19 18 18 18 18 18 18 18 17 18 19 20 21 24 28 31 34 35 31 26 25 28 30 33 34 35 35 35 36 37 37 37 37 36 35 33 31 28 26 23 19 17 14 12 11 10 10 10 10 12 13 14 14 16 17 20 23 26 28 30 31 30 30 30 32 32 32 33 37 40 39 37 38
27 26 25 24 23 23 21 19 19 20 20 20 19 19 19 19 19 19 19 18 18 18 19 19 20 24 27 29 31 32 31 31 32 32 33 33 33 33 33 34 35 37 38 38 37 36 34 32 30 27 24 21 18 16 13 12 11 11 11 11 11 12 13 14 15 16 17 20 24 26 28 31 31 30 31 33 33 31 31 35 39 39 37 37 39
26 25 23 21 21 22 21 19 19 19 19 19 19 20 20 20 20 20 19 18 19 19 18 17 18 22 24 26 29 33 33 33 32 32 31 31 31 32 32 33 34 35 36 36 35 34 32 30 27 24 21 18 16 14 12 11 11 11 11 10 11 12 13 14 16 16 18 21 25 27 29 31 31 31 34 35 32 30 32 37 39 37 36 38 39
24 23 21 20 20 21 20 19 19 18 18 19 19 20 20 19 19 19 18 18 19 19 19 20 22 23 23 25 30 33 32 29 29 30 31 31 32 32 32 33 34 34 34 33 32 31 29 26 24 22 19 16 14 12 11 10 10 10 10 10 11 12 13 15 16 16 18 22 26 28 31 32 31 34 36 34 29 30 35 38 37 37 37 38 38
22 21 20 19 18 17 16 16 16 16 16 16 16 16 17 18 18 18 18 18 19 21 22 23 24 24 25 26 29 30 29 29 30 31 32 32 32 33 33 34 34 33 33 31 30 28 26 23 21 19 17 14 13 11 10 9 9 9 9 10 12 13 14 15 16 17 19 22 26 29 32 33 35 38 37 31 29 33 36 37 36 36 37 38 37
21 19 17 15 13 12 12 13 14 14 14 14 13 13 14 15 16 17 18 20 22 23 22 22 23 25 26 27 28 29 30 31 31 32 32 33 34 34 34 34 34 33 32 31 28 26 23 21 18 16 14 13 11 9 8 8 8 8 9 11 13 14 15 15 16 18 19 21 25 29 31 35 39 39 33 29 31 35 36 35 36 36 37 39 39
11 10 9 9 9 10 11 12 13 13 13 13 13 13 13 14 16 18 20 21 23 22 22 22 24 26 26 27 29 30 31 32 32 33 33 33 34 35 35 34 33 32 30 28 25 23 21 18 16 14 13 11 10 8 7 7 7 8 10 11 13 15 15 15 17 18 19 20 23 27 31 36 38 35 29 29 34 35 34 34 35 35 37 40 40
1 2 4 6 8 10 10 11 12 12 12 13 13 14 14 16 17 18 20 21 22 22 23 24 25 26 27 28 29 31 32 32 33 33 33 34 34 34 34 33 31 29 27 25 22 20 18 16 14 13 11 9 8 7 6 6 7 8 10 12 13 14 15 16 18 18 19 19 22 27 32 34 32 29 29 32 34 33 34 34 34 35 38 39 39
6 7 8 8 9 9 10 11 12 13 14 15 15 15 16 17 18 18 19 20 20 22 24 25 26 28 29 30 30 32 33 33 33 34 34 35 34 33 31 30 28 26 24 22 20 18 16 14 12 10 9 7 5 5 5 6 7 9 10 12 13 14 15 17 17 17 17 20 24 28 31 30 28 28 31 33 33 33 33 33 34 36 38 38 38
10 10 11 11 12 12 12 13 14 14 15 16 17 17 17 18 18 19 20 21 21 22 24 26 29 31 32 32 33 33 34 34 34 35 35 34 32 31 29 27 25 23 21 19 18 16 14 12 10 8 6 5 4 4 5 7 9 10 11 12 13 14 16 16 16 16 17 21 25 29 29 27 27 29 32 32 31 32 32 32 34 36 37 36 38
12 13 13 13 14 14 14 15 15 15 16 17 17 17 18 18 18 19 21 22 23 24 26 28 30 32 33 33 33 33 33 34 34 34 34 32 30 29 27 25 23 21 19 17 16 14 12 10 8 6 4 3 3 5 7 8 10 11 12 13 14 15 16 15 16 19 20 22 25 28 28 26 27 30 32 31 31 31 31 31 33 35 35 35 36
Wind_Direction
217 218 218 217 218 218 219 219 219 220 219 219 220 220 220 220 220 219 216 215 214 212 212 212 212 212 211 211 211 210 210 209 208 208 207 207 206 204 203 202 204 205 205 206 207 209 211 212 212 213 213 216 220 224 227 230 233 232 231 233 234 237 240 243 254 269 270 270 274 278 282 295 306 313 318 321 325 330 331 330 330 329 329 328 326
220 221 220 219 221 221 221 220 219 219 219 219 220 221 221 221 220 218 217 216 215 213 212 211 211 211 211 211 211 210 210 209 208 207 207 206 205 204 203 202 203 204 204 206 207 209 211 213 213 213 214 218 221 226 229 231 235 237 238 241 245 247 247 248 254 270 278 277 279 289 299 308 313 317 322 323 326 329 329 328 328 327 325 324 322
223 223 221 221 223 224 223 222 220 219 218 219 220 220 221 220 219 218 216 216 214 214 213 211 210 210 209 210 211 210 210 209 208 208 207 206 204 203 203 203 204 204 205 207 208 209 210 212 214 213 214 218 221 225 230 233 237 240 244 247 251 254 252 251 252 261 279 285 287 296 308 314 316 321 325 326 327 328 326 324 325 323 323 323 319
228 226 224 224 224 223 223 222 221 220 220 220 221 221 220 219 218 217 215 215 214 213 212 211 209 208 208 209 209 210 210 209 209 208 207 207 206 204 204 204 206 207 208 209 209 210 211 212 214 214 215 217 220 224 227 233 239 243 247 250 250 253 254 252 253 258 275 288 291 299 310 314 318 323 327 328 328 327 324 323 323 322 322 323 320
230 229 229 228 225 223 222 220 219 220 221 222 222 221 219 217 216 215 213 213 213 211 209 208 207 207 207 208 208 209 210 210 209 208 208 207 207 206 205 205 207 208 210 211 211 212 213 214 215 215 215 216 217 222 226 232 239 242 245 246 243 246 251 253 259 266 274 285 293 303 314 318 319 323 329 330 328 325 323 321 322 322 322 321 319
229 229 230 230 228 225 222 219 218 220 221 222 222 220 218 216 214 213 212 211 210 209 207 206 206 206 207 207 207 208 210 210 209 209 208 208 207 207 207 206 207 208 210 211 213 214 215 217 217 216 216 218 219 222 227 231 237 240 239 238 236 238 248 258 272 282 285 288 296 304 312 318 319 322 328 329 325 321 321 321 322 322 320 319 318
231 230 228 228 227 225 223 220 220 221 221 221 220 218 217 215 213 212 211 209 208 207 206 206 207 206 206 206 206 207 208 208 208 208 208 207 207 206 206 205 206 207 209 211 212 215 216 217 218 218 219 222 223 225 228 230 233 236 234 231 231 235 249 268 281 286 288 291 296 303 310 315 317 317 322 324 321 317 319 321 319 318 318 318 317
241 237 233 230 229 227 225 223 223 223 222 220 217 216 215 214 213 211 209 208 208 207 206 205 204 204 204 204 205 205 205 205 206 206 206 206 205 205 204 203 203 204 206 209 211 213 215 216 218 221 222 224 227 228 230 232 231 230 228 222 220 230 248 266 275 278 282 287 294 301 306 309 312 315 320 324 321 319 320 315 309 311 315 314 313
253 247 240 237 235 233 230 226 225 223 220 218 216 214 213 212 211 210 208 207 207 207 206 204 202 201 202 203 203 203 203 204 205 205 205 204 203 203 203 202 202 202 202 205 208 210 212 215 217 220 222 223 227 231 233 234 231 224 216 211 216 232 247 256 262 267 273 279 287 295 298 300 307 314 318 320 316 314 316 310 303 308 313 310 308
261 251 243 243 242 239 235 231 226 222 218 216 215 212 211 210 208 207 207 206 205 204 203 202 202 201 200 201 201 202 203 204 205 206 206 204 202 201 201 201 201 201 201 200 203 206 210 213 215 218 220 221 224 229 230 228 225 220 213 215 225 232 239 246 252 259 266 270 276 286 290 293 302 307 306 309 311 309 311 312 308 310 313 310 307
267 255 247 248 246 242 239 234 227 222 219 216 214 211 208 207 206 205 203 202 202 201 200 200 201 201 201 200 200 200 202 203 205 207 206 205 202 200 199 199 199 200 200 199 200 203 206 210 213 214 215 216 218 220 217 214 213 216 223 233 242 243 242 245 250 256 261 264 270 277 280 285 297 304 303 306 310 308 308 309 307 307 310 308 306
273 263 256 253 248 242 238 233 227 223 219 215 213 209 206 203 202 201 200 199 199 198 198 199 199 200 199 199 199 200 202 204 205 206 205 204 204 202 199 198 197 197 199 200 201 201 203 206 208 209 210 212 212 208 204 207 210 216 226 233 236 241 246 250 254 258 261 266 273 277 281 288 296 302 303 305 307 305 304 304 303 302 302 299 297
280 270 264 258 251 244 238 230 226 223 218 214 210 206 203 201 199 199 198 197 196 196 197 198 197 198 197 197 199 200 201 203 204 204 203 203 204 202 200 198 198 198 199 200 200 201 201 201 201 204 207 207 207 204 201 204 210 216 223 228 231 237 244 250 256 260 264 271 277 278 282 289 291 292 295 299 301 301 300 299 299 297 294 292 292
290 278 272 266 257 249 239 230 226 223 217 211 206 202 201 200 199 197 195 193 193 194 195 196 196 196 197 197 198 199 200 202 202 202 200 200 201 201 199 198 199 199 199 200 200 200 201 200 200 202 203 200 200 203 201 201 204 210 215 221 229 236 241 247 254 259 263 266 270 275 280 284 283 283 288 292 292 293 294 295 296 295 291 292 294
306 291 282 274 265 252 240 232 226 222 215 208 203 200 200 199 197 196 193 193 194 194 194 195 194 195 196 196 196 197 199 200 199 198 195 192 195 199 198 197 198 198 199 200 200 201 201 202 202 202 200 198 198 201 203 201 202 208 216 222 230 239 246 254 258 260 262 263 267 275 280 281 281 282 288 292 291 291 294 295 296 298 298 298 298
321 311 298 286 274 257 243 232 225 219 212 206 202 200 199 197 196 194 193 193 194 194 194 194 193 194 194 195 195 195 198 198 195 194 191 187 189 195 196 196 196 197 198 199 200 202 202 202 202 201 200 199 197 198 200 201 204 212 223 232 240 247 251 257 261 262 266 270 273 278 281 282 285 287 290 294 293 295 300 299 298 300 301 299 296
331 325 316 303 286 265 248 234 225 218 210 205 203 201 198 197 195 193 191 191 192 193 194 193 193 194 193 194 194 193 194 194 191 190 187 184 186 192 192 192 193 195 197 198 199 201 201 202 201 198 199 200 198 197 198 201 208 217 226 233 238 245 252 262 269 268 269 273 275 280 283 284 287 288 289 290 292 298 302 300 298 300 301 297 293
334 331 325 317 301 279 259 241 229 219 211 207 205 202 199 197 195 193 191 191 192 193 194 193 193 194 193 194 194 193 192 191 189 188 186 184 188 191 189 188 190 192 193 194 197 199 200 203 202 201 203 202 199 198 199 203 211 217 224 228 235 248 260 267 270 269 273 281 285 286 285 284 283 284 285 287 291 296 295 291 293 298 295 287 286
334 331 327 322 310 292 271 250 235 224 216 211 207 204 201 197 195 194 193 193 193 193 193 192 193 194 195 195 195 194 194 191 189 188 185 185 190 192 188 186 186 187 189 189 193 197 199 200 203 206 207 201 197 200 201 205 212 216 220 228 238 251 259 262 267 277 285 289 290 287 281 280 282 285 287 290 292 294 291 288 291 293 289 285 286
331 329 325 322 314 300 281 258 242 230 220 215 208 204 201 197 194 192 192 193 192 191 192 191 192 194 195 196 196 196 195 191 189 189 186 186 190 190 188 186 185 185 186 186 188 193 196 199 201 203 204 199 198 202 202 206 212 214 219 228 236 244 255 266 274 282 285 282 280 281 282 285 288 290 293 295 296 297 293 290 290 288 286 287 286
329 327 323 319 313 303 286 264 247 235 225 215 208 204 201 198 195 191 190 191 190 189 191 190 191 192 193 195 196 197 198 194 189 189 189 188 190 191 190 191 190 188 187 186 189 191 195 200 201 200 201 200 199 201 204 207 211 213 219 227 235 245 261 273 275 274 273 274 280 284 285 288 291 295 298 300 300 299 295 291 289 287 284 284 285
325 323 320 315 310 301 286 265 247 236 226 215 207 203 200 199 196 191 189 189 188 187 188 188 189 189 191 195 197 198 200 197 192 191 192 191 191 192 194 196 195 190 187 187 190 193 196 202 202 199 199 199 198 200 203 205 208 215 223 229 238 252 260 264 268 270 274 279 284 286 287 291 297 301 303 302 300 299 296 294 291 288 283 281 282
319 316 313 309 304 296 281 262 245 233 223 213 206 202 199 197 194 190 188 187 184 184 186 186 186 185 187 192 196 198 200 198 195 193 194 194 192 192 196 199 196 193 190 188 190 192 195 200 200 195 193 194 195 197 200 203 208 215 222 226 235 250 253 255 263 272 277 281 284 287 291 298 303 303 302 300 299 299 297 295 293 291 288 285 283
312 307 303 300 295 288 274 256 243 232 221 211 204 200 198 196 193 191 189 186 183 183 185 185 183 183 186 190 194 198 199 198 198 196 195 196 195 192 194 196 196 195 194 192 190 190 192 194 193 190 190 192 192 195 199 203 208 210 211 215 227 239 247 256 266 274 278 281 285 290 296 302 303 301 300 300 301 300 298 296 294 292 291 289 288
308 300 296 291 286 279 266 251 239 231 222 212 204 200 197 193 192 192 190 188 187 185 184 185 185 185 188 189 192 196 196 195 196 197 197 199 198 194 192 193 193 195 195 192 189 187 187 186 185 186 190 190 188 192 196 199 203 205 199 204 223 238 249 259 267 270 274 281 288 293 299 302 302 301 302 302 302 299 298 297 296 295 294 293 292
308 299 292 287 280 270 258 247 236 228 220 214 209 206 200 195 192 193 192 192 193 190 186 187 188 188 190 190 190 192 194 192 193 194 195 199 200 198 193 191 190 191 192 190 185 178 177 179 183 187 188 186 187 193 200 205 209 208 205 215 230 244 252 256 261 268 277 286 292 295 299 302 302 303 304 303 300 298 298 298 296 296 296 295 295
305 298 291 285 278 266 253 245 235 224 216 212 209 208 205 200 196 194 194 193 193 193 191 189 189 191 191 190 189 190 191 191 190 191 192 194 198 197 192 188 186 184 183 182 176 173 174 177 182 184 183 182 190 199 206 212 213 211 216 225 233 240 244 249 262 275 282 288 293 295 299 302 303 304 304 302 299 298 298 297 295 294 297 297 293
299 295 289 283 276 264 253 244 234 224 217 211 207 205 205 203 202 202 200 197 194 194 193 192 194 195 191 186 185 187 191 193 192 191 190 189 190 190 185 181 181 179 177 175 172 172 172 170 173 178 180 184 193 200 205 208 208 209 214 215 217 224 231 246 264 272 280 289 295 298 302 304 303 304 305 301 298 298 299 298 295 295 298 298 291
295 291 286 281 272 263 253 243 233 226 220 215 213 213 210 208 208 210 210 206 202 200 198 198 200 198 193 188 185 184 192 199 197 193 190 187 186 185 180 177 179 180 179 177 173 168 166 169 174 180 185 188 191 193 196 198 195 195 198 198 203 219 233 252 269 280 291 299 301 302 305 305 304 305 305 301 298 299 301 299 297 297 298 295 288
291 286 283 278 270 261 251 243 235 228 222 218 217 220 221 217 215 215 216 214 212 209 207 207 205 201 198 197 195 193 198 200 195 190 188 185 184 183 180 179 180 178 175 175 172 168 168 174 180 184 186 186 187 187 187 188 187 186 187 192 202 221 244 262 279 294 301 303 304 305 305 304 303 304 303 300 300 302 302 300 299 298 296 292 289
285 282 281 278 273 263 251 243 237 230 225 222 218 218 221 223 223 222 220 217 216 214 214 215 211 206 203 202 200 201 201 196 188 184 184 183 182 181 179 177 175 170 168 171 171 169 172 177 180 184 186 185 186 187 184 182 183 182 181 191 205 224 251 269 285 299 302 303 305 306 305 303 302 302 301 301 301 301 302 303 301 298 294 291 291
281 280 279 278 276 268 255 245 239 231 225 223 220 218 217 218 223 225 223 220 217 216 215 215 211 207 206 203 199 197 194 186 182 182 182 181 181 180 176 172 169 165 167 172 171 170 176 179 178 181 184 184 185 185 182 180 181 179 181 194 210 229 254 275 293 301 302 304 305 305 305 304 302 301 301 301 300 300 302 303 302 298 296 295 295
281 280 279 278 276 270 258 247 240 233 226 221 218 217 216 214 216 218 219 220 222 220 218 216 212 208 206 204 200 196 191 183 180 182 182 180 180 178 173 171 169 165 167 172 171 171 178 181 180 181 184 185 183 181 178 178 178 178 187 204 221 244 264 281 294 298 300 304 305 305 305 304 303 303 301 300 300 300 300 301 300 299 299 299 299
279 278 278 276 273 269 262 251 241 234 230 225 220 217 217 218 215 208 205 210 217 220 218 217 215 210 207 203 199 194 189 184 182 182 181 180 179 175 170 170 171 171 173 176 174 174 178 181 182 183 185 184 181 178 176 176 177 181 195 213 233 257 272 284 292 296 300 304 306 306 306 305 304 303 302 301 301 300 299 299 299 300 301 302 302
280 279 278 276 273 267 261 253 243 236 231 225 222 221 220 219 216 210 203 201 205 210 212 213 212 210 207 202 197 192 188 185 184 182 180 179 177 172 167 168 169 169 172 176 177 177 180 182 182 183 183 181 178 176 175 176 180 189 201 218 239 257 271 281 287 292 299 305 306 306 305 305 304 302 300 299 299 298 298 298 299 299 301 302 302
284 281 280 279 277 272 265 256 244 236 232 226 224 222 220 217 214 211 209 207 205 205 206 206 206 206 205 201 196 192 188 185 183 181 180 178 175 171 168 169 167 164 168 174 177 180 182 183 183 182 181 179 177 176 176 179 186 197 210 226 244 258 270 279 286 293 300 302 303 304 305 305 304 302 300 297 296 295 296 297 298 299 301 303 302
279 276 275 274 273 270 266 259 247 238 232 226 223 219 215 214 212 208 207 208 206 205 203 196 194 197 200 197 194 191 187 184 182 181 180 179 177 175 172 169 166 165 167 171 175 179 182 183 184 182 179 178 177 176 178 183 192 204 217 231 246 260 271 279 284 289 293 295 300 305 307 305 303 301 298 295 295 296 297 297 298 299 302 304 304
277 275 273 273 274 272 266 256 246 238 230 222 218 214 210 208 207 204 205 205 202 201 199 191 187 189 190 188 187 187 184 181 179 180 181 181 179 175 170 167 166 166 167 171 176 180 181 182 183 181 179 178 178 178 181 186 195 208 222 235 250 263 273 279 282 285 290 297 304 308 306 303 301 299 296 293 293 296 298 298 298 301 304 307 307
280 276 273 273 274 275 271 259 240 228 220 214 211 208 205 204 201 199 201 202 200 198 194 190 189 188 184 181 180 180 179 178 178 179 179 176 171 166 164 165 166 166 168 172 176 179 180 180 180 180 179 178 177 178 181 187 197 211 225 240 257 269 277 284 289 294 299 303 306 307 305 302 300 298 296 293 294 297 298 298 300 304 306 307 307
279 277 274 269 264 264 265 255 234 218 210 207 205 202 201 201 199 197 197 197 196 195 191 189 189 187 183 180 178 178 178 177 175 171 163 157 157 161 165 168 168 167 169 171 174 178 179 178 177 177 177 176 176 177 182 190 201 214 228 244 259 271 282 291 295 300 303 304 306 306 304 301 300 298 295 294 296 298 298 298 303 307 307 306 305
274 272 271 268 262 260 258 244 223 212 206 203 200 200 201 200 197 196 196 195 194 191 188 188 188 186 183 182 180 179 175 164 154 151 151 154 160 166 169 169 169 169 170 172 175 177 177 175 174 175 174 174 176 179 186 197 207 217 233 245 255 269 282 291 297 302 303 303 305 304 302 300 299 296 294 296 299 298 297 300 306 308 308 307 307
269 266 264 262 260 259 255 238 217 206 203 200 198 197 199 197 195 195 195 194 191 186 183 182 181 179 179 179 176 172 164 153 150 152 156 161 165 167 167 169 170 171 173 175 176 176 175 173 173 173 173 174 179 184 192 203 213 223 236 246 256 269 283 294 301 304 304 303 304 302 300 298 297 294 295 299 299 297 300 307 310 310 308 309 309
266 264 260 255 252 251 246 231 211 201 198 197 195 195 195 194 193 194 193 188 184 180 173 165 161 163 165 164 161 157 155 153 154 156 158 160 162 163 165 169 171 173 176 177 176 174 174 172 171 171 173 176 181 188 198 208 218 229 239 249 261 273 285 295 301 305 306 305 304 301 299 298 298 296 298 300 299 300 307 313 312 310 309 310 310
264 262 259 254 251 247 236 217 203 197 196 194 193 192 191 190 190 189 186 179 173 167 158 152 151 151 149 148 149 151 151 151 152 153 155 157 159 161 166 170 172 174 175 174 172 171 171 169 168 170 172 176 183 193 204 213 224 235 245 255 267 276 285 295 302 307 309 305 302 301 301 300 300 300 301 300 301 307 314 314 311 310 311 311 311
263 261 259 253 245 235 217 201 194 192 188 187 186 186 185 184 182 179 174 166 158 154 153 154 152 146 141 143 148 150 148 148 150 152 154 156 159 163 167 170 171 171 170 169 169 169 169 168 168 168 171 177 185 194 206 219 231 243 254 263 272 280 289 297 303 307 306 302 301 301 301 301 302 303 301 302 307 313 314 312 310 310 311 312 312
264 259 252 239 222 204 190 184 182 178 174 174 174 174 174 174 170 165 160 155 153 152 152 149 144 139 139 143 145 145 145 147 150 152 155 159 162 165 168 168 168 169 169 168 168 168 168 168 168 168 170 178 188 197 211 225 240 254 262 267 274 282 290 297 302 302 301 301 302 301 300 302 303 302 300 304 313 316 313 310 309 310 311 313 313
263 248 228 204 182 168 163 163 161 160 161 163 161 157 156 153 149 148 149 148 148 146 141 137 136 137 139 141 142 143 145 149 152 154 157 160 163 164 165 166 167 168 168 167 167 167 167 167 168 169 172 180 191 203 218 234 250 263 267 270 275 281 286 294 298 297 298 301 303 303 304 304 302 300 303 311 315 315 312 310 310 311 313 315 315
295 160 148 145 140 138 139 142 142 140 139 138 137 135 135 133 133 136 139 139 138 136 133 132 133 135 136 138 141 144 147 149 153 156 158 161 162 163 164 166 168 168 168 167 167 167 168 168 169 171 176 184 195 209 228 247 262 271 274 275 276 279 285 292 294 294 298 304 307 308 307 303 299 301 310 315 315 313 311 310 311 314 316 317 316
70 85 94 99 103 109 115 120 122 123 124 123 122 120 121 122 124 127 129 129 131 132 133 133 133 135 137 139 143 146 149 151 154 157 160 161 163 164 166 167 169 169 167 167 167 167 168 170 170 172 178 190 207 228 250 268 277 281 283 283 282 282 286 289 290 294 302 308 309 308 305 301 300 307 314 315 314 313 312 310 312 316 318 318 318
76 82 87 88 90 96 103 107 109 112 117 119 118 117 118 120 122 125 125 126 127 130 133 134 136 138 141 143 145 149 152 155 157 159 161 163 164 166 167 169 169 168 167 168 169 169 170 171 171 176 186 202 231 260 278 287 289 290 291 291 288 287 287 290 295 303 307 307 307 306 303 301 306 313 316 315 314 313 311 311 315 318 319 319 319
84 87 89 91 93 97 102 104 105 109 115 117 118 120 122 123 124 127 129 130 132 135 137 139 140 141 143 145 148 151 154 157 160 161 163 164 165 167 168 169 169 169 170 171 170 170 172 173 174 181 199 225 258 278 288 293 295 295 297 294 290 291 295 301 306 306 304 303 306 307 304 305 312 317 318 316 314 312 311 313 317 319 320 320 320